1489593600.14,48965,10.94,73466.0,-7.75,-8.59,-8.55,0,*5F
1489593601.35,48966,10.94,73470.8,-7.73,-8.59,-8.63,0,*5F
1489593602.57,48967,10.94,73484.5,-7.73,-8.59,-8.55,0,*5B
1489593603.78,48968,10.94,73466.5,-7.73,-8.59,-8.55,0,*54
1489593605.0,48969,10.94,73472.8,-7.73,-8.59,-8.59,0,*59
1489593606.22,48970,10.94,73466.5,-7.73,-8.67,-8.59,0,*5C
1489593607.41,48971,10.94,73460.0,-7.71,-8.59,-8.59,0,*52
1489593608.6,48972,10.94,73470.5,-7.75,-8.63,-8.59,0,*5C
1489593609.82,48973,10.94,73462.5,-7.73,-8.67,-8.59,0,*5F
1489593611.04,48974,10.94,73466.0,-7.73,-8.59,-8.59,0,*55
1489593612.23,48975,10.94,73456.8,-7.75,-8.63,-8.59,0,*5B
1489593613.43,48976,10.94,73470.0,-7.75,-8.63,-8.59,0,*58
1489593614.62,48977,10.94,73474.0,-7.71,-8.55,-8.55,0,*54
1489593615.84,48978,10.94,73476.0,-7.73,-8.59,-8.59,0,*59
1489593617.06,48979,10.94,73488.0,-7.73,-8.59,-8.59,0,*58
1489593618.27,48980,10.94,73484.8,-7.73,-8.59,-8.59,0,*5E
1489593619.49,48981,10.94,73490.8,-7.73,-8.59,-8.59,0,*5F
1489593620.68,48982,10.94,73488.8,-7.75,-8.59,-8.59,0,*5A
1489593621.9,48983,10.94,73492.5,-7.73,-8.59,-8.59,0,*5D
1489593623.12,48984,10.94,73492.0,-7.73,-8.59,-8.59,0,*5A
1489593624.33,48985,10.94,73472.8,-7.73,-8.59,-8.55,0,*57
1489593625.55,48986,10.94,73472.8,-7.73,-8.55,-8.55,0,*58
1489593626.77,48987,10.94,73486.0,-7.73,-8.55,-8.59,0,*55
1489593627.99,48988,10.94,73492.3,-7.73,-8.55,-8.55,0,*56
1489593629.18,48989,10.94,73486.0,-7.75,-8.59,-8.59,0,*51
1489593630.4,48990,10.94,73498.8,-7.73,-8.55,-8.55,0,*5F
1489593631.64,48991,10.94,73510.5,-7.73,-8.51,-8.55,0,*5A
1489593632.84,48992,10.94,73506.0,-7.75,-8.59,-8.55,0,*57
1489593634.05,48993,10.94,73500.8,-7.73,-8.55,-8.55,0,*5C
1489593635.3,48994,10.94,73492.8,-7.73,-8.59,-8.51,0,*53
1489593636.49,48995,10.94,73500.3,-7.71,-8.59,-8.55,0,*54
1489593637.68,48996,10.94,73502.3,-7.71,-8.59,-8.55,0,*57
1489593638.87,48997,10.94,73496.0,-7.75,-8.55,-8.55,0,*5E
1489593640.12,48998,10.94,73492.0,-7.73,-8.55,-8.51,0,*53
1489593641.34,48999,10.94,73490.3,-7.71,-8.55,-8.51,0,*50
1489593642.59,49000,10.94,73498.5,-7.71,-8.51,-8.51,0,*5C
1489593643.78,49001,10.94,73494.3,-7.71,-8.55,-8.55,0,*5D
1489593645.0,49002,10.94,73500.5,-7.73,-8.55,-8.55,0,*5C
1489593646.27,49003,10.94,73500.3,-7.73,-8.51,-8.51,0,*5D
1489593647.52,49004,10.94,73498.8,-7.73,-8.55,-8.51,0,*5E
1489593648.72,49005,10.94,73500.8,-7.75,-8.59,-8.55,0,*51
1489593649.94,49006,10.94,73516.0,-7.69,-8.45,-8.37,0,*56
1489593651.13,49007,10.94,73510.3,-7.71,-8.55,-8.55,0,*5B
1489593652.33,49008,10.94,73526.0,-7.71,-8.55,-8.55,0,*54
1489593653.55,49009,10.94,73520.8,-7.69,-8.45,-8.45,0,*5C
1489593654.77,49010,10.94,73524.8,-7.71,-8.51,-8.41,0,*5C
1489593655.96,49011,10.94,73516.0,-7.71,-8.55,-8.55,0,*5C
1489593657.15,49012,10.94,73524.5,-7.71,-8.55,-8.55,0,*5F
1489593658.35,49013,10.94,73534.0,-7.71,-8.55,-8.55,0,*5E
1489593659.54,49014,10.94,73534.5,-7.71,-8.59,-8.59,0,*59
1489593660.75,49015,10.94,73530.8,-7.71,-8.51,-8.59,0,*50
1489593662.0,49016,10.94,73538.0,-7.73,-8.55,-8.51,0,*5D
1489593663.28,49017,10.94,73534.3,-7.73,-8.51,-8.51,0,*58
1489593664.48,49018,10.94,73536.8,-7.71,-8.45,-8.45,0,*55
1489593665.75,49019,10.94,73542.8,-7.69,-8.51,-8.51,0,*5D
1489593666.94,49020,10.94,73542.5,-7.71,-8.55,-8.55,0,*5E
1489593668.14,49021,10.94,73534.8,-7.71,-8.71,-8.67,0,*58
1489593669.35,49022,10.94,73524.0,-7.71,-8.81,-8.71,0,*53
1489593670.57,49023,10.94,73514.0,-7.71,-8.81,-8.85,0,*59
1489593671.78,49024,10.94,73516.8,-7.71,-8.85,-8.85,0,*5A
1489593672.99,49025,10.94,73524.0,-7.69,-8.63,-8.55,0,*57
1489593674.21,49026,10.94,73514.0,-7.73,-8.59,-8.67,0,*57
1489593675.42,49027,10.94,73508.0,-7.71,-8.81,-8.67,0,*51
1489593676.63,49028,10.94,73522.5,-7.75,-8.89,-8.85,0,*5E
1489593677.86,49029,10.94,73520.0,-7.73,-8.93,-8.85,0,*52
1489593679.07,49030,10.94,73524.3,-7.75,-8.89,-8.89,0,*5B
1489593680.32,49031,10.94,73522.5,-7.73,-8.93,-8.81,0,*5F
1489593681.55,49032,10.94,73512.8,-7.73,-8.93,-8.85,0,*58
1489593682.76,49033,10.94,73518.8,-7.75,-8.89,-8.89,0,*58
1489593683.97,49034,10.94,73518.3,-7.75,-8.89,-8.85,0,*53
1489593685.18,49035,10.94,73520.0,-7.75,-8.89,-8.85,0,*52
1489593686.37,49036,10.94,73514.5,-7.75,-8.97,-8.97,0,*5D
1489593687.6,49037,10.94,73506.5,-7.73,-8.93,-8.93,0,*5A
1489593688.81,49038,10.94,73514.3,-7.75,-8.97,-8.85,0,*50
1489593690.01,49039,10.94,73512.0,-7.75,-8.97,-8.97,0,*52
1489593691.23,49040,10.94,73514.5,-7.73,-8.97,-8.93,0,*5E
1489593692.44,49041,10.94,73510.5,-7.75,-9.01,-8.89,0,*5C
1489593693.65,49042,10.94,73512.0,-7.75,-9.01,-9.01,0,*5E
1489593694.86,49043,10.94,73514.0,-7.75,-8.93,-8.85,0,*58
1489593696.08,49044,10.94,73518.5,-7.77,-8.85,-8.75,0,*55
1489593697.3,49045,10.94,73508.8,-7.77,-8.75,-8.75,0,*5B
1489593698.52,49046,10.94,73514.0,-7.77,-8.75,-8.71,0,*5C
1489593699.74,49047,10.94,73508.3,-7.77,-8.63,-8.63,0,*59
1489593700.94,49048,10.94,73504.5,-7.75,-8.71,-8.71,0,*54
1489593702.13,49049,10.94,73504.5,-7.75,-8.75,-8.75,0,*55
1489593703.33,49050,10.94,73502.3,-7.75,-8.75,-8.63,0,*5A
1489593704.53,49051,10.94,73502.3,-7.75,-8.71,-8.71,0,*5C
1489593705.72,49052,10.94,73494.5,-7.75,-8.75,-8.71,0,*5B
1489593706.99,49053,10.94,73484.5,-7.73,-8.81,-8.81,0,*58
1489593708.2,49054,10.94,73484.8,-7.75,-8.85,-8.89,0,*55
1489593709.4,49055,10.94,73486.0,-7.75,-8.97,-8.89,0,*57
1489593710.63,49056,10.94,73484.8,-7.77,-8.75,-8.85,0,*56
1489593711.86,49057,10.94,73486.5,-7.77,-8.85,-8.85,0,*58
1489593713.07,49058,10.94,73480.8,-7.79,-8.89,-8.89,0,*59
1489593714.28,49059,10.94,73480.5,-7.77,-8.75,-8.75,0,*56
1489593715.51,49060,10.94,73486.3,-7.77,-8.75,-8.85,0,*53
1489593716.73,49061,10.94,73478.3,-7.77,-8.75,-8.71,0,*59
1489593717.95,49062,10.94,73480.3,-7.77,-8.85,-8.75,0,*51
1489593719.17,49063,10.94,73482.0,-7.77,-8.75,-8.75,0,*5F
1489593720.39,49064,10.94,73478.5,-7.77,-8.63,-8.63,0,*58
1489593721.61,49065,10.94,73476.3,-7.77,-8.63,-8.71,0,*5A
1489593722.83,49066,10.94,73482.3,-7.77,-8.63,-8.63,0,*5A
1489593724.05,49067,10.94,73466.3,-7.77,-8.63,-8.59,0,*52
1489593725.27,49068,10.94,73468.3,-7.77,-8.63,-8.59,0,*5D
1489593726.48,49069,10.94,73466.8,-7.77,-8.63,-8.55,0,*50
1489593727.7,49070,10.94,73464.3,-7.77,-8.55,-8.59,0,*51
1489593728.93,49071,10.94,73460.0,-7.77,-8.45,-8.45,0,*5C
1489593730.16,49072,10.94,73468.3,-7.77,-8.55,-8.45,0,*5E
1489593731.38,49073,10.94,73462.0,-7.77,-8.55,-8.45,0,*5F
1489593732.57,49074,10.94,73466.0,-7.75,-8.55,-8.55,0,*5B
1489593733.77,49075,10.94,73460.5,-7.75,-8.59,-8.55,0,*56
1489593734.96,49076,10.94,73470.8,-7.75,-8.55,-8.55,0,*59
1489593736.15,49077,10.94,73474.0,-7.75,-8.59,-8.55,0,*54
1489593737.34,49078,10.94,73474.3,-7.75,-8.59,-8.55,0,*5B
1489593738.54,49079,10.94,73474.5,-7.75,-8.55,-8.59,0,*5A
1489593739.74,49080,10.94,73474.3,-7.75,-8.55,-8.55,0,*50
1489593740.93,49081,10.94,73478.3,-7.75,-8.55,-8.55,0,*51
1489593742.21,49082,10.94,73484.0,-7.73,-8.51,-8.51,0,*54
1489593743.41,49083,10.94,73482.0,-7.75,-8.59,-8.45,0,*5E
1489593744.61,49084,10.94,73474.3,-7.75,-8.55,-8.45,0,*55
1489593745.88,49085,10.94,73464.5,-7.73,-8.51,-8.51,0,*53
1489593747.08,49086,10.94,73466.3,-7.75,-8.55,-8.55,0,*56
1489593748.33,49087,10.94,73472.0,-7.73,-8.55,-8.51,0,*55
1489593749.52,49088,10.94,73474.8,-7.75,-8.55,-8.55,0,*58
1489593750.77,49089,10.94,73474.0,-7.73,-8.51,-8.45,0,*5A
1489593752.02,49090,10.94,73472.8,-7.73,-8.55,-8.51,0,*53
1489593753.3,49091,10.94,73480.0,-7.73,-8.51,-8.51,0,*56
1489593754.54,49092,10.94,73498.0,-7.73,-8.51,-8.55,0,*51
1489593755.78,49093,10.94,73492.8,-7.73,-8.51,-8.55,0,*50
1489593756.98,49094,10.94,73490.5,-7.75,-8.55,-8.55,0,*55
1489593758.23,49095,10.94,73492.0,-7.73,-8.51,-8.41,0,*53
1489593759.45,49096,10.94,73494.8,-7.73,-8.41,-8.41,0,*51
1489593760.7,49097,10.94,73486.0,-7.73,-8.41,-8.51,0,*51
1489593761.95,49098,10.94,73488.3,-7.73,-8.51,-8.41,0,*5E
1489593763.2,49099,10.94,73498.0,-7.73,-8.51,-8.41,0,*5F
1489593764.44,49100,10.94,73498.5,-7.73,-8.55,-8.51,0,*5B
1489593765.66,49101,10.94,73490.5,-7.73,-8.59,-8.59,0,*5E
1489593766.86,49102,10.94,73490.3,-7.75,-8.71,-8.63,0,*58
1489593768.08,49103,10.94,73506.5,-7.73,-8.55,-8.55,0,*5C
1489593769.33,49104,10.94,73498.5,-7.73,-8.55,-8.51,0,*5F
1489593770.55,49105,10.94,73494.0,-7.73,-8.71,-8.67,0,*5D
1489593771.76,49106,10.94,73492.5,-7.73,-8.59,-8.55,0,*55
1489593772.98,49107,10.94,73492.0,-7.73,-8.59,-8.55,0,*54
1489593774.19,49108,10.94,73494.5,-7.73,-8.59,-8.55,0,*5B
1489593775.41,49109,10.94,73496.5,-7.73,-8.55,-8.55,0,*56
1489593776.66,49110,10.94,73488.5,-7.73,-8.55,-8.51,0,*5A
1489593777.88,49111,10.94,73488.0,-7.73,-8.55,-8.55,0,*5F
1489593779.1,49112,10.94,73486.3,-7.73,-8.55,-8.55,0,*5C
1489593780.29,49113,10.94,73484.0,-7.75,-8.59,-8.59,0,*5B
1489593781.5,49114,10.94,73480.5,-7.73,-8.67,-8.67,0,*5A
1489593782.75,49115,10.94,73480.0,-7.73,-8.81,-8.71,0,*54
1489593783.95,49116,10.88,73484.5,-7.75,-8.85,-8.75,0,*51
1489593785.16,49117,10.94,73486.5,-7.73,-8.59,-8.59,0,*59
1489593786.38,49118,10.94,73492.8,-7.73,-8.59,-8.59,0,*56
1489593787.6,49119,10.94,73490.0,-7.73,-8.59,-8.55,0,*5B
1489593788.81,49120,10.94,73484.8,-7.73,-8.59,-8.55,0,*51
1489593790.03,49121,10.94,73482.0,-7.73,-8.59,-8.55,0,*50
1489593791.27,49122,10.94,73486.5,-7.73,-8.55,-8.51,0,*5B
1489593792.52,49123,10.94,73502.0,-7.73,-8.55,-8.51,0,*5A
1489593793.8,49124,10.94,73500.5,-7.73,-8.51,-8.51,0,*59
1489593795.07,49125,10.94,73508.3,-7.73,-8.51,-8.51,0,*58
1489593796.29,49126,10.94,73512.5,-7.73,-8.55,-8.55,0,*5B
1489593797.48,49127,10.88,73508.3,-7.71,-8.59,-8.59,0,*58
1489593798.7,49128,10.94,73518.8,-7.73,-8.59,-8.55,0,*59
1489593799.91,49129,10.94,73514.0,-7.73,-8.59,-8.67,0,*59
1489593801.13,49130,10.94,73512.8,-7.73,-8.67,-8.59,0,*51
1489593802.34,49131,10.94,73506.0,-7.73,-8.59,-8.67,0,*50
1489593803.58,49132,10.94,73490.8,-7.73,-8.81,-8.71,0,*51
1489593804.78,49133,10.94,73492.3,-7.75,-8.71,-8.71,0,*59
1489593805.98,49134,10.94,73494.0,-7.75,-8.59,-8.59,0,*5E
1489593807.23,49135,10.94,73496.0,-7.73,-8.55,-8.51,0,*5D
1489593808.42,49136,10.94,73500.5,-7.75,-8.55,-8.55,0,*5C
1489593809.67,49137,10.94,73502.0,-7.73,-8.55,-8.51,0,*5F
1489593810.92,49138,10.94,73504.5,-7.73,-8.55,-8.51,0,*50
1489593812.11,49139,10.94,73504.3,-7.75,-8.59,-8.59,0,*53
1489593813.33,49140,10.94,73504.0,-7.73,-8.55,-8.55,0,*5B
1489593814.56,49141,10.94,73518.5,-7.73,-8.55,-8.41,0,*5F
1489593815.77,49142,10.94,73518.0,-7.73,-8.55,-8.55,0,*59
1489593816.96,49143,10.94,73516.8,-7.71,-8.55,-8.55,0,*5A
1489593818.18,49144,10.94,73520.0,-7.73,-8.59,-8.59,0,*5F
1489593819.4,49145,10.94,73512.3,-7.73,-8.59,-8.59,0,*5E
1489593820.62,49146,10.94,73518.5,-7.73,-8.59,-8.59,0,*5D
1489593821.83,49147,10.94,73522.3,-7.73,-8.59,-8.59,0,*5C
1489593823.05,49148,10.94,73516.3,-7.73,-8.59,-8.59,0,*53
1489593824.27,49149,10.88,73508.0,-7.73,-8.55,-8.55,0,*52
1489593825.54,49150,10.94,73516.0,-7.73,-8.51,-8.51,0,*5A
1489593826.79,49151,10.94,73512.8,-7.73,-8.51,-8.55,0,*5F
1489593828.01,49152,10.94,73514.3,-7.73,-8.55,-8.41,0,*5D
1489593829.23,49153,10.88,73518.3,-7.73,-8.55,-8.41,0,*5C
1489593830.48,49154,10.94,73520.3,-7.73,-8.51,-8.41,0,*5F
1489593831.76,49155,10.94,73520.0,-7.73,-8.51,-8.51,0,*5F
1489593833.0,49156,10.94,73520.5,-7.73,-8.51,-8.41,0,*5D
1489593834.23,49157,10.94,73520.5,-7.71,-8.55,-8.51,0,*5B
1489593835.5,49158,10.88,73520.3,-7.69,-8.51,-8.51,0,*59
1489593836.69,49159,10.94,73520.0,-7.71,-8.67,-8.55,0,*50
1489593837.88,49160,10.94,73524.5,-7.71,-8.59,-8.59,0,*5B
1489593839.1,49161,10.94,73524.0,-7.73,-8.59,-8.59,0,*58
1489593840.31,49162,10.94,73524.5,-7.73,-8.59,-8.55,0,*57
1489593841.53,49163,10.94,73528.0,-7.73,-8.67,-8.59,0,*57
1489593842.75,49164,10.94,73530.5,-7.73,-8.59,-8.59,0,*5D
1489593843.97,49165,10.88,73522.5,-7.73,-8.71,-8.67,0,*5B
1489593845.18,49166,10.94,73524.8,-7.73,-8.59,-8.59,0,*5F
1489593846.4,49167,10.88,73526.8,-7.73,-8.59,-8.59,0,*5E
1489593847.62,49168,10.94,73530.0,-7.73,-8.59,-8.59,0,*51
1489593848.83,49169,10.94,73526.3,-7.73,-8.55,-8.55,0,*50
1489593850.08,49170,10.94,73528.3,-7.73,-8.55,-8.51,0,*5C
1489593851.33,49171,10.88,73526.8,-7.73,-8.55,-8.51,0,*5D
1489593852.53,49172,10.88,73524.5,-7.75,-8.63,-8.59,0,*55
1489593853.74,49173,10.94,73528.3,-7.73,-8.67,-8.67,0,*5B
1489593854.97,49174,10.94,73530.3,-7.73,-8.71,-8.71,0,*5C
1489593856.19,49175,10.94,73530.0,-7.73,-8.71,-8.71,0,*5D
1489593857.42,49176,10.88,73524.3,-7.73,-8.71,-8.71,0,*5E
1489593858.64,49177,10.94,73526.8,-7.73,-8.71,-8.59,0,*55
1489593859.86,49178,10.94,73530.0,-7.73,-8.59,-8.59,0,*50
1489593861.06,49179,10.88,73522.3,-7.75,-8.63,-8.63,0,*57
1489593862.27,49180,10.88,73522.5,-7.73,-8.67,-8.67,0,*57
1489593863.53,49181,10.94,73526.5,-7.73,-8.81,-8.81,0,*56
1489593864.73,49182,10.88,73522.0,-7.75,-8.75,-8.75,0,*53
1489593865.94,49183,10.94,73524.5,-7.73,-8.67,-8.59,0,*59
1489593867.14,49184,10.94,73522.0,-7.75,-8.71,-8.63,0,*56
1489593868.34,49185,10.94,73522.5,-7.75,-8.71,-8.63,0,*57
1489593869.56,49186,10.94,73522.5,-7.73,-8.67,-8.59,0,*5C
1489593870.76,49187,10.88,73520.3,-7.75,-8.85,-8.71,0,*5D
1489593871.98,49188,10.88,73520.5,-7.73,-8.67,-8.59,0,*52
1489593873.18,49189,10.94,73526.0,-7.75,-8.63,-8.63,0,*58
1489593874.37,49190,10.94,73524.5,-7.75,-8.63,-8.63,0,*50
1489593875.57,49191,10.88,73524.3,-7.75,-8.63,-8.63,0,*51
1489593876.82,49192,10.88,73522.8,-7.73,-8.59,-8.51,0,*5C
1489593878.06,49193,10.88,73522.0,-7.73,-8.59,-8.51,0,*5D
1489593879.28,49194,10.88,73522.0,-7.73,-8.67,-8.55,0,*53
1489593880.49,49195,10.88,73522.0,-7.75,-8.85,-8.85,0,*55
1489593881.69,49196,10.94,73520.0,-7.75,-8.85,-8.75,0,*59
1489593882.9,49197,10.88,73520.0,-7.73,-8.59,-8.67,0,*5C
1489593884.1,49198,10.94,73518.0,-7.75,-8.63,-8.59,0,*51
1489593885.29,49199,10.88,73516.5,-7.75,-8.59,-8.55,0,*55
1489593886.49,49200,10.88,73516.5,-7.75,-8.55,-8.45,0,*5B
1489593887.69,49201,10.88,73518.0,-7.75,-8.45,-8.41,0,*5F
1489593888.94,49202,10.94,73520.0,-7.73,-8.51,-8.41,0,*5F
1489593890.14,49203,10.94,73520.5,-7.75,-8.45,-8.45,0,*59
1489593891.34,49204,10.94,73520.8,-7.75,-8.45,-8.45,0,*5E
1489593892.56,49205,10.88,73518.5,-7.73,-8.55,-8.55,0,*59
1489593893.84,49206,10.88,73516.8,-7.73,-8.51,-8.51,0,*5A
1489593895.09,49207,10.88,73516.5,-7.73,-8.55,-8.51,0,*5F
1489593896.34,49208,10.94,73518.0,-7.73,-8.51,-8.41,0,*55
1489593897.56,49209,10.94,73522.5,-7.73,-8.55,-8.41,0,*50
1489593898.78,49210,10.88,73516.3,-7.73,-8.55,-8.55,0,*5D
1489593899.97,49211,10.88,73516.5,-7.75,-8.59,-8.55,0,*56
1489593901.16,49212,10.94,73524.3,-7.75,-8.59,-8.55,0,*55
1489593902.4,49213,10.88,73522.8,-7.73,-8.51,-8.55,0,*5A
1489593903.62,49214,10.94,73526.0,-7.73,-8.55,-8.55,0,*59
1489593904.9,49215,10.88,73524.3,-7.73,-8.51,-8.51,0,*58
1489593906.17,49216,10.88,73524.0,-7.73,-8.51,-8.51,0,*5B
1489593907.44,49217,10.88,73530.5,-7.73,-8.51,-8.51,0,*5A
1489593908.69,49218,10.94,73534.5,-7.73,-8.55,-8.51,0,*51
1489593909.91,49219,10.94,73536.5,-7.73,-8.55,-8.55,0,*54
1489593911.15,49220,10.88,73536.3,-7.73,-8.81,-8.71,0,*51
1489593912.4,49221,10.94,73540.3,-7.73,-8.85,-8.81,0,*5B
1489593913.64,49222,10.88,73546.8,-7.73,-8.81,-8.71,0,*53
1489593914.87,49223,10.88,73546.0,-7.73,-8.71,-8.71,0,*5D
1489593916.09,49224,10.88,73540.5,-7.73,-8.97,-8.93,0,*5E
1489593917.3,49225,10.88,73528.5,-7.75,-8.89,-8.89,0,*5D
1489593918.53,49226,10.88,73512.3,-7.73,-8.97,-8.85,0,*5B
1489593919.75,49227,10.88,73498.5,-7.73,-8.93,-8.97,0,*5D
1489593920.98,49228,10.94,73490.3,-7.75,-9.11,-8.97,0,*5F
1489593922.19,49229,10.88,73488.8,-7.75,-9.01,-8.97,0,*5F
1489593923.4,49230,10.94,73502.8,-7.75,-9.01,-8.89,0,*58
1489593924.64,49231,10.88,73510.5,-7.73,-8.81,-8.71,0,*51
1489593925.84,49232,10.88,73520.0,-7.75,-8.75,-8.71,0,*5F
1489593927.04,49233,10.88,73510.0,-7.75,-8.89,-8.85,0,*56
1489593928.3,49234,10.94,73504.5,-7.75,-9.11,-9.11,0,*5D
1489593929.56,49235,10.88,73502.5,-7.75,-9.15,-9.11,0,*58
1489593930.78,49236,10.88,73502.5,-7.77,-9.23,-9.23,0,*5D
1489593931.98,49237,10.88,73500.5,-7.79,-9.27,-9.19,0,*5F
1489593933.18,49238,10.88,73496.3,-7.79,-9.05,-8.93,0,*53
1489593934.41,49239,10.88,73492.8,-7.79,-9.27,-9.15,0,*5D
1489593935.61,49240,10.88,73510.0,-7.79,-9.05,-9.01,0,*56
1489593936.84,49241,10.88,73506.8,-7.79,-8.93,-8.81,0,*50
1489593938.06,49242,10.88,73500.0,-7.77,-8.89,-8.75,0,*5D
1489593939.3,49243,10.94,73506.0,-7.79,-8.81,-8.81,0,*51
1489593940.53,49244,10.88,73502.5,-7.77,-8.71,-8.71,0,*58
1489593941.76,49245,10.88,73496.8,-7.77,-8.89,-8.85,0,*55
1489593942.96,49246,10.88,73506.5,-7.79,-9.05,-8.93,0,*5A
1489593944.18,49247,10.88,73488.3,-7.79,-8.89,-8.81,0,*5D
1489593945.39,49248,10.94,73496.8,-7.79,-8.89,-8.89,0,*5A
1489593946.61,49249,10.88,73494.5,-7.79,-8.81,-8.67,0,*53
1489593947.84,49250,10.88,73486.8,-7.77,-8.85,-8.85,0,*5D
1489593949.06,49251,10.88,73486.8,-7.79,-8.89,-8.81,0,*5A
1489593950.25,49252,10.88,73496.3,-7.79,-8.67,-8.67,0,*51
1489593951.45,49253,10.88,73490.5,-7.79,-8.75,-8.75,0,*50
1489593952.69,49254,10.88,73490.3,-7.79,-8.81,-8.81,0,*57
1489593953.88,49255,10.88,73488.3,-7.79,-8.67,-8.67,0,*56
1489593955.07,49256,10.88,73502.3,-7.79,-8.67,-8.67,0,*55
1489593956.26,49257,10.94,73496.5,-7.79,-8.67,-8.59,0,*59
1489593957.45,49258,10.88,73486.3,-7.79,-8.67,-8.63,0,*5F
1489593958.66,49259,10.88,73490.5,-7.79,-8.89,-8.89,0,*5A
1489593959.85,49260,10.94,73506.8,-7.79,-8.67,-8.67,0,*50
1489593961.07,49261,10.88,73508.8,-7.77,-8.63,-8.55,0,*5A
1489593962.28,49262,10.88,73500.5,-7.77,-8.59,-8.59,0,*5C
1489593963.48,49263,10.88,73496.3,-7.79,-8.63,-8.63,0,*53
1489593964.7,49264,10.88,73524.3,-7.77,-8.59,-8.59,0,*5A
1489593965.89,49265,10.88,73528.5,-7.79,-8.63,-8.59,0,*5C
1489593967.11,49266,10.88,73528.8,-7.79,-8.59,-8.51,0,*5E
1489593968.33,49267,10.88,73524.5,-7.77,-8.55,-8.55,0,*59
1489593969.56,49268,10.88,73536.0,-7.79,-8.63,-8.51,0,*59
1489593970.77,49269,10.88,73524.3,-7.77,-8.59,-8.59,0,*57
1489593972.0,49270,10.88,73512.8,-7.77,-8.71,-8.71,0,*5F
1489593973.22,49271,10.88,73508.5,-7.77,-8.71,-8.63,0,*5D
1489593974.44,49272,10.88,73516.5,-7.77,-8.63,-8.63,0,*5D
1489593975.65,49273,10.94,73524.3,-7.77,-8.59,-8.55,0,*50
1489593976.85,49274,10.88,73528.0,-7.79,-8.59,-8.59,0,*55
1489593978.06,49275,10.88,73520.3,-7.77,-8.59,-8.55,0,*56
1489593979.28,49276,10.88,73526.0,-7.77,-8.59,-8.55,0,*55
1489593980.49,49277,10.94,73538.0,-7.77,-8.59,-8.59,0,*58
1489593981.68,49278,10.94,73536.0,-7.79,-8.67,-8.67,0,*59
1489593982.91,49279,10.88,73528.0,-7.77,-8.85,-8.75,0,*59
1489593984.13,49280,10.94,73536.3,-7.77,-8.63,-8.63,0,*50
1489593985.33,49281,10.94,73528.5,-7.79,-8.93,-8.89,0,*54
1489593986.56,49282,10.88,73526.0,-7.77,-8.89,-8.75,0,*51
1489593987.78,49283,10.88,73510.5,-7.77,-8.75,-8.75,0,*53
1489593989.0,49284,10.88,73476.8,-7.77,-8.85,-8.75,0,*5B
1489593990.2,49285,10.88,73488.5,-7.79,-8.97,-8.89,0,*54
1489593991.41,49286,10.94,73504.3,-7.79,-8.93,-8.93,0,*58
1489593992.64,49287,10.88,73510.5,-7.79,-9.15,-9.01,0,*5C
1489593993.87,49288,10.88,73514.3,-7.79,-9.41,-9.27,0,*56
1489593995.07,49289,10.94,73512.0,-7.79,-9.19,-9.19,0,*57
1489593996.32,49290,10.88,73508.8,-7.79,-9.15,-9.15,0,*5F
1489593997.61,49291,10.88,73514.8,-7.81,-9.15,-9.15,0,*59
1489593998.87,49292,10.88,73512.8,-7.81,-9.15,-8.93,0,*55
1489594000.13,49293,10.94,73512.3,-7.81,-9.15,-9.01,0,*5E
1489594001.36,49294,10.88,73510.5,-7.81,-9.27,-9.27,0,*5C
1489594002.58,49295,10.94,73510.8,-7.81,-9.19,-9.19,0,*5D
1489594003.81,49296,10.94,73476.3,-7.81,-9.19,-9.05,0,*53
1489594005.05,49297,10.94,73478.3,-7.81,-9.01,-9.05,0,*5B
1489594006.28,49298,10.94,73472.5,-7.81,-9.05,-9.01,0,*54
1489594007.49,49299,10.88,73478.0,-7.83,-9.23,-9.19,0,*5A
1489594008.69,49300,10.88,73482.0,-7.83,-9.31,-9.31,0,*52
1489594009.91,49301,10.88,73490.3,-7.81,-9.31,-9.27,0,*56
1489594011.14,49302,10.94,73474.0,-7.81,-9.31,-9.27,0,*55
1489594012.34,49303,10.88,73462.0,-7.83,-9.23,-9.31,0,*52
1489594013.55,49304,10.94,73454.3,-7.83,-9.31,-9.23,0,*55
1489594014.81,49305,10.94,73478.3,-7.83,-9.11,-9.11,0,*57
1489594016.07,49306,10.94,73478.5,-7.83,-9.45,-9.37,0,*51
1489594017.29,49307,10.88,73476.5,-7.83,-9.45,-9.31,0,*56
1489594018.57,49308,10.88,73468.3,-7.85,-9.37,-9.37,0,*5C
1489594019.8,49309,10.94,73462.8,-7.85,-9.31,-9.23,0,*5E
1489594021.03,49310,10.94,73464.0,-7.89,-9.11,-8.97,0,*56
1489594022.23,49311,10.94,73472.8,-7.89,-8.85,-8.75,0,*57
1489594023.45,49312,10.94,73486.5,-7.85,-8.71,-8.71,0,*57
1489594024.65,49313,10.94,73490.0,-7.89,-8.71,-8.71,0,*5A
1489594025.88,49314,10.88,73486.0,-7.85,-8.71,-8.71,0,*51
1489594027.1,49315,10.88,73486.5,-7.83,-8.81,-8.71,0,*59
1489594028.32,49316,10.88,73488.0,-7.81,-8.75,-8.67,0,*54
1489594029.57,49317,10.94,73496.0,-7.83,-8.81,-8.81,0,*54
1489594030.78,49318,10.94,73494.0,-7.83,-8.93,-8.85,0,*5C
1489594031.99,49319,10.88,73476.3,-7.83,-9.05,-8.97,0,*50
1489594033.23,49320,10.94,73486.5,-7.83,-9.19,-9.11,0,*58
1489594034.48,49321,10.94,73484.5,-7.85,-9.11,-8.97,0,*58
1489594035.71,49322,10.94,73468.3,-7.85,-8.97,-8.89,0,*5B
1489594036.94,49323,10.94,73466.3,-7.85,-8.97,-8.85,0,*56
1489594038.18,49324,10.94,73464.8,-7.85,-8.85,-8.85,0,*52
1489594039.42,49325,10.94,73466.0,-7.85,-8.81,-8.71,0,*5C
1489594040.65,49326,10.94,73464.0,-7.85,-8.93,-8.93,0,*50
1489594041.88,49327,10.94,73466.5,-7.85,-8.97,-8.93,0,*55
1489594043.11,49328,10.94,73466.3,-7.85,-8.85,-8.71,0,*55
1489594044.35,49329,10.94,73456.5,-7.85,-8.81,-8.71,0,*50
1489594045.58,49330,10.94,73462.0,-7.85,-8.71,-8.71,0,*57
1489594046.8,49331,10.94,73464.5,-7.85,-8.71,-8.67,0,*51
1489594048.02,49332,10.94,73478.8,-7.85,-8.71,-8.67,0,*52
1489594049.25,49333,10.94,73474.3,-7.85,-8.71,-8.67,0,*53
1489594050.44,49334,10.94,73484.3,-7.83,-8.67,-8.67,0,*55
1489594051.66,49335,10.94,73490.0,-7.85,-8.67,-8.67,0,*52
1489594052.88,49336,10.94,73486.5,-7.83,-8.81,-8.71,0,*58
1489594054.09,49337,10.94,73492.8,-7.83,-8.71,-8.71,0,*56
1489594055.3,49338,10.94,73492.5,-7.83,-8.71,-8.71,0,*59
1489594056.53,49339,10.94,73502.8,-7.83,-8.71,-8.81,0,*57
1489594057.74,49340,10.94,73496.5,-7.83,-8.97,-8.93,0,*52
1489594058.94,49341,10.94,73496.3,-7.83,-8.97,-8.97,0,*57
1489594060.15,49342,10.94,73504.8,-7.83,-8.85,-8.71,0,*5F
1489594061.36,49343,10.88,73478.3,-7.83,-8.93,-8.93,0,*55
1489594062.6,49344,10.94,73490.8,-7.81,-8.89,-8.89,0,*50
1489594063.81,49345,10.94,73500.0,-7.81,-8.67,-8.67,0,*51
1489594065.02,49346,10.94,73496.8,-7.83,-8.71,-8.71,0,*50
1489594066.22,49347,10.94,73498.0,-7.83,-8.71,-8.67,0,*56
1489594067.43,49348,10.94,73502.5,-7.83,-8.71,-8.67,0,*59
1489594068.63,49349,10.88,73506.8,-7.83,-8.67,-8.63,0,*5B
1489594069.82,49350,10.94,73502.3,-7.83,-8.67,-8.67,0,*57
1489594071.03,49351,10.94,73506.5,-7.83,-8.71,-8.67,0,*51
1489594072.23,49352,10.94,73516.0,-7.83,-8.71,-8.67,0,*52
1489594073.43,49353,10.88,73500.5,-7.83,-8.71,-8.67,0,*53
1489594074.66,49354,10.94,73504.3,-7.81,-8.75,-8.75,0,*51
1489594075.87,49355,10.88,73506.3,-7.81,-8.67,-8.67,0,*50
1489594077.07,49356,10.94,73506.5,-7.83,-8.71,-8.67,0,*56
1489594078.28,49357,10.94,73504.3,-7.83,-8.71,-8.67,0,*57
1489594079.53,49358,10.94,73498.0,-7.81,-8.59,-8.51,0,*55
1489594080.73,49359,10.88,73504.8,-7.83,-8.63,-8.59,0,*57
1489594081.93,49360,10.88,73500.5,-7.83,-8.63,-8.55,0,*51
1489594083.13,49361,10.94,73498.8,-7.83,-8.63,-8.63,0,*55
1489594084.34,49362,10.88,73498.3,-7.83,-8.63,-8.63,0,*56
1489594085.54,49363,10.94,73490.3,-7.83,-8.63,-8.63,0,*57
1489594086.76,49364,10.88,73492.5,-7.81,-8.63,-8.63,0,*52
1489594087.99,49365,10.94,73494.3,-7.81,-8.63,-8.59,0,*5A
1489594089.21,49366,10.88,73488.5,-7.81,-8.59,-8.59,0,*50
1489594090.43,49367,10.88,73490.0,-7.81,-8.63,-8.59,0,*58
1489594091.65,49368,10.94,73494.5,-7.81,-8.59,-8.59,0,*5E
1489594092.85,49369,10.88,73484.5,-7.83,-8.67,-8.63,0,*59
1489594094.07,49370,10.88,73488.5,-7.81,-8.63,-8.59,0,*5E
1489594095.29,49371,10.88,73486.5,-7.81,-8.75,-8.63,0,*51
1489594096.53,49372,10.88,73488.5,-7.83,-8.85,-8.81,0,*53
1489594097.75,49373,10.88,73486.8,-7.81,-8.75,-8.75,0,*54
1489594098.97,49374,10.88,73494.0,-7.81,-8.75,-8.75,0,*53
1489594100.19,49375,10.88,73494.0,-7.81,-8.75,-8.75,0,*52
1489594101.42,49376,10.88,73500.3,-7.83,-8.81,-8.71,0,*5C
1489594102.66,49377,10.88,73496.8,-7.83,-8.81,-8.81,0,*52
1489594103.89,49378,10.94,73504.3,-7.81,-8.93,-8.93,0,*5F